Content
SEND FEEDBACK

Daily
Averages
Monthly
Summary
United States of America

WARTRACE, TENNESSEE


Home > North America > United States > Tennessee
Elevation: 775 feet     Latitude: 35 29N     Longitude: 086 27W

WEATHER
 
SELECT A DAY
Number of Records: 53,719;   Date Range: 9/2/10 - 7/27/14
 
SHARE

PRINT THIS DATA

[ ← Previous Day ]
WEATHER ALMANAC - FEBRUARY 21, 2014
[ Next Day → ]
[ °C ]   °F
Weather ElementAverageHighLow
Temperature42.4 °F53.6 °F (2:55 pm)30.2 °F (11:55 pm)
Dewpoint27.9 °F44.6 °F (12:55 am)10.4 °F (5:55 pm)
Humidity63 %100 % (6:35 am)21 % (4:35 pm)
Barometer30.04 in30.12 in (9:35 pm)29.88 in (12:55 am)
Wind Speed6.1 mph18.4 mph (1:15 am)
Wind Gust36.8 mph (1:55 am)
Weather ElementAverage
Visibility9.7 mi
Wind DirectionS (185.4 °)

Weather ElementTotal
Precipitation---
Heating Degree Days23.1 (Base 65)
Averaged from 70 records on February 21, 2014
WEATHER CONDITIONS BREAKOUT
WIND DIRECTION BREAKOUT
WEATHER BY HOUR - FEBRUARY 21, 2014
[ °C ]   °F
Local TimeTemperatureDewpointHumidityBarometerVisibilityWind DirectionWind SpeedGust SpeedPrecipitationEventsConditions
12:55 AM46.4 °F44.6 °F93 %29.88 in6.0 miWNW (290°)16.1 mphMostly Cloudy
1:15 AM46.4 °F44.6 °F93 %29.89 in6.0 miWNW (300°)18.4 mphOvercast
1:35 AM42.8 °F41.0 °F93 %29.92 in5.0 miWNW (290°)12.7 mphOvercast
1:55 AM42.8 °F39.2 °F87 %29.92 in4.0 miNW (320°)17.3 mph36.8 mphOvercast
2:15 AM41.0 °F39.2 °F93 %29.94 in7.0 miWNW (300°)13.8 mphMostly Cloudy
2:35 AM41.0 °F39.2 °F93 %29.93 in9.0 miWNW (300°)13.8 mphOvercast
2:55 AM41.0 °F39.2 °F93 %29.94 in10.0 miWNW (290°)11.5 mphOvercast
3:15 AM39.2 °F37.4 °F93 %29.96 in10.0 miWNW (290°)8.1 mphOvercast
3:35 AM39.2 °F37.4 °F93 %29.96 in10.0 miWNW (290°)6.9 mphOvercast
3:55 AM39.2 °F37.4 °F93 %29.96 in10.0 miWest (280°)6.9 mphOvercast
4:15 AM39.2 °F37.4 °F93 %29.96 in10.0 miWest (260°)4.6 mphOvercast
4:35 AM37.4 °F35.6 °F93 %29.97 in10.0 miWSW (250°)5.8 mphPartly Cloudy
4:55 AM37.4 °F35.6 °F93 %29.98 in10.0 miWest (260°)4.6 mphClear
5:15 AM37.4 °F35.6 °F93 %29.99 in10.0 miSW (220°)4.6 mphClear
5:35 AM35.6 °F33.8 °F93 %30.00 in10.0 miSW (230°)4.6 mphClear
5:55 AM35.6 °F33.8 °F93 %30.00 in10.0 miSSW (210°)5.8 mphClear
6:15 AM35.6 °F33.8 °F93 %30.00 in10.0 miSSW (200°)3.5 mphClear
6:35 AM33.8 °F33.8 °F100 %30.01 in10.0 miCalmClear
6:55 AM33.8 °F33.8 °F100 %30.02 in10.0 miSW (230°)3.5 mphClear
7:15 AM35.6 °F35.6 °F100 %30.02 in10.0 miSW (220°)3.5 mphClear
7:35 AM39.2 °F35.6 °F87 %30.04 in10.0 miSW (230°)5.8 mphClear
7:55 AM41.0 °F37.4 °F87 %30.05 in10.0 miWSW (250°)8.1 mphClear
8:15 AM42.8 °F35.6 °F76 %30.06 in10.0 miWSW (250°)9.2 mphClear
8:35 AM42.8 °F35.6 °F76 %30.06 in10.0 miWest (280°)10.4 mphClear
8:55 AM44.6 °F33.8 °F66 %30.06 in10.0 miWest (270°)9.2 mphClear
9:15 AM44.6 °F32.0 °F61 %30.06 in10.0 miWest (260°)10.4 mphClear
9:35 AM46.4 °F28.4 °F50 %30.06 in10.0 miWNW (300°)16.1 mphClear
9:55 AM46.4 °F26.6 °F46 %30.06 in10.0 miWest (280°)12.7 mphClear
10:15 AM46.4 °F28.4 °F50 %30.06 in10.0 miVariable5.8 mphClear
10:35 AM46.4 °F26.6 °F46 %30.07 in10.0 miWest (280°)15.0 mphClear
10:55 AM46.4 °F24.8 °F43 %30.06 in10.0 miWest (260°)15.0 mphClear
11:15 AM48.2 °F24.8 °F40 %30.07 in10.0 miWNW (290°)9.2 mphClear
11:35 AM48.2 °F24.8 °F40 %30.07 in10.0 miNNW (330°)10.4 mphClear
11:55 AM48.2 °F24.8 °F40 %30.06 in10.0 miNW (320°)11.5 mphClear
12:15 PM48.2 °F23.0 °F37 %30.06 in10.0 miWest (280°)9.2 mphClear
12:35 PM50.0 °F21.2 °F32 %30.05 in10.0 miNNW (330°)6.9 mphClear
12:55 PM51.8 °F21.2 °F30 %30.05 in10.0 miWest (280°)6.9 mphClear
1:15 PM51.8 °F21.2 °F30 %30.05 in10.0 miNW (320°)6.9 mphClear
1:35 PM51.8 °F21.2 °F30 %30.05 in10.0 miWNW (290°)11.5 mphClear
1:55 PM51.8 °F21.2 °F30 %30.05 in10.0 miWNW (300°)9.2 mphClear
2:15 PM51.8 °F19.4 °F28 %30.05 in10.0 miNW (320°)11.5 mphClear
2:35 PM51.8 °F19.4 °F28 %30.05 in10.0 miWNW (290°)4.6 mphClear
2:55 PM53.6 °F19.4 °F26 %30.06 in10.0 miWNW (300°)10.4 mphClear
3:15 PM53.6 °F19.4 °F26 %30.06 in10.0 miWest (260°)6.9 mphClear
3:35 PM51.8 °F17.6 °F26 %30.06 in10.0 miWNW (300°)9.2 mphClear
3:55 PM51.8 °F15.8 °F24 %30.06 in10.0 miCalmClear
4:15 PM53.6 °F19.4 °F26 %30.06 in10.0 miWNW (290°)8.1 mphClear
4:35 PM51.8 °F12.2 °F21 %30.07 in10.0 miWSW (250°)4.6 mphClear
4:55 PM51.8 °F14.0 °F22 %30.07 in10.0 miWest (270°)3.5 mphClear
5:15 PM48.2 °F14.0 °F25 %30.07 in10.0 miWest (270°)5.8 mphClear
5:35 PM48.2 °F15.8 °F27 %30.07 in10.0 miCalmClear
5:55 PM46.4 °F10.4 °F23 %30.07 in10.0 miCalmClear
6:15 PM44.6 °F21.2 °F39 %30.07 in10.0 miCalmClear
6:35 PM41.0 °F21.2 °F45 %30.07 in10.0 miCalmClear
6:55 PM39.2 °F24.8 °F56 %30.08 in10.0 miCalmClear
7:15 PM37.4 °F24.8 °F60 %30.08 in10.0 miCalmClear
7:35 PM35.6 °F26.6 °F70 %30.08 in10.0 miCalmClear
7:55 PM33.8 °F26.6 °F75 %30.09 in10.0 miCalmClear
8:15 PM35.6 °F26.6 °F70 %30.09 in10.0 miCalmClear
8:35 PM33.8 °F24.8 °F70 %30.10 in10.0 miCalmClear
8:55 PM33.8 °F26.6 °F75 %30.10 in10.0 miCalmClear
9:15 PM33.8 °F24.8 °F70 %30.10 in10.0 miCalmClear
9:35 PM33.8 °F26.6 °F75 %30.12 in10.0 miCalmClear
9:55 PM32.0 °F26.6 °F80 %30.12 in10.0 miCalmClear
10:15 PM33.8 °F24.8 °F70 %30.12 in10.0 miCalmClear
10:35 PM33.8 °F26.6 °F75 %30.11 in10.0 miCalmClear
10:55 PM35.6 °F24.8 °F65 %30.11 in10.0 miCalmClear
11:15 PM33.8 °F26.6 °F75 %30.11 in10.0 miCalmClear
11:35 PM32.0 °F26.6 °F80 %30.11 in10.0 miCalmClear
11:55 PM30.2 °F26.6 °F86 %30.11 in10.0 miCalmClear
Hourly data recorded from KTHA, located miles away from Wartrace, Tennessee







STORIES FROM OUR PARTNERS